Tracking 20945 objects as of 8-Jul-2020
HD Live streaming from Space Station
objects crossing your sky now

GALS 2

Track GALS 2 now!
GALS 2 is classified as:


NORAD ID: 23717
Int'l Code: 1995-063A
Perigee: 35,867.9 km
Apogee: 35,932.1 km
Inclination: 13.7 °
Period: 1,441.5 minutes
Semi major axis: 42270 km
RCS: 8.9125 m2 (large)
Launch date: November 17, 1995
Source: Commonwealth of Independent States (former USSR) (CIS)
Launch site: TYURATAM MISSILE AND SPACE COMPLEX (TTMTR)
aabbcc
Your satellite tracking list
Your tracking list is empty




NASA's NSSDC Master Catalog

Two Line Element Set (TLE):
1 23717U 95063A   20189.87723105 -.00000328 +00000-0 +00000-0 0  9990
2 23717 013.7374 019.0746 0007590 316.9917 050.7659 00.99893925089958
Source of the keplerian elements: AFSPC